User: anonymous   Login
Location: Unspecified
(0.0000°N, 0.0000°E)
Time: 03:19:53
(UTC+00:00)
Language:

YUNYAO-1 20 - Orbit

View from above orbital plane
View from above orbital plane
View from above satellite
View from above satellite

Ground track
Ground track

The orbit is defined by the following mean orbital elements,

1 58760U          26145.62926095 +.00000000 +00000-0 +55127-3 0 00009
2 58760  49.9773 275.8647 0004159 209.4832 150.5886 15.17711967    01
Epoch (UTC): 25 May 2026 15:06:08
Eccentricity: 0.0004159
inclination: 49.9773°
perigee height: 510 km
apogee height: 516 km
right ascension of ascending node: 275.8647°
argument of perigee: 209.4832°
revolutions per day: 15.17711967
mean anomaly at epoch: 150.5886°

The dashed part of the orbit path shows where the satellite is in the earth's shadow,  

DLR